Theta_e
298 299 299 299 299 300 300 300 301 300 300 301 301 301 304 307 307 305 304 303 305 307 305 303 306 307 306 307 306 306 307 307 308 309 309 309 309 308 309 309 309 310 311 311 310 310 312 312 312 313 313 314 317 315 315 315 313 313 313 314 317 321 321 317 316 317 317 317 317 317 317 317 315 317 318 315 313 314 312 312 315 313 314 315 311 318 326
299 299 299 299 300 300 300 300 300 300 300 301 301 302 305 307 305 304 304 304 305 308 306 304 306 307 306 306 307 306 306 306 307 308 308 308 308 308 309 309 309 311 311 311 311 312 316 315 314 315 316 317 319 318 316 315 312 313 315 315 316 319 321 319 318 319 319 318 317 317 317 317 317 319 321 319 317 317 316 316 315 313 315 315 311 318 325
299 299 299 300 300 300 300 300 300 300 301 301 301 303 305 305 303 304 305 305 306 308 308 307 307 307 307 307 307 307 306 306 307 307 308 308 308 309 310 310 311 311 311 313 313 312 315 317 317 317 317 319 319 318 318 316 314 316 319 318 317 320 322 322 319 318 318 319 318 318 317 318 321 321 321 321 321 320 318 315 312 314 319 317 314 321 322
299 299 299 300 300 300 300 300 300 301 301 301 302 303 305 306 303 304 306 307 307 309 310 309 307 306 307 307 307 307 307 307 307 308 309 309 308 309 310 310 312 312 312 313 314 313 313 316 317 316 317 320 319 318 318 317 319 322 322 320 320 322 323 324 323 320 319 320 321 321 321 320 322 322 321 321 322 324 322 314 311 315 319 319 321 325 321
299 300 300 300 300 301 301 301 301 301 302 302 303 303 306 307 306 306 307 308 308 308 309 308 305 305 306 306 308 309 308 309 310 309 310 311 310 310 310 311 313 314 313 313 314 314 313 315 316 316 318 320 320 319 319 319 322 323 321 320 321 322 321 322 323 321 320 321 321 321 322 322 322 322 322 321 321 325 325 320 317 317 315 319 324 323 320
299 299 300 300 301 301 301 301 301 301 302 302 304 306 307 308 307 308 309 308 308 308 309 307 305 305 306 307 310 312 311 312 312 309 310 312 311 311 313 313 314 314 314 315 316 315 314 315 317 319 319 320 320 320 319 319 320 319 319 321 322 322 321 321 322 320 319 319 319 320 320 320 321 322 323 323 323 325 328 326 326 323 318 321 324 321 319
299 299 299 300 300 301 302 302 301 302 303 303 305 308 309 310 309 310 311 310 309 309 309 308 307 308 309 309 311 313 312 312 311 308 310 312 311 311 313 314 314 313 313 316 318 318 316 317 320 321 321 320 320 320 319 318 318 318 320 321 321 321 320 320 321 320 319 319 319 320 319 320 320 320 321 322 323 325 326 325 326 325 324 323 322 320 318
299 299 299 299 300 300 301 302 301 301 303 304 307 308 309 311 310 311 312 311 310 311 309 309 310 310 311 312 312 312 311 309 308 308 311 314 314 312 313 314 315 315 315 316 318 319 320 322 322 322 322 321 321 321 320 318 317 318 320 321 321 321 319 320 321 320 320 320 319 319 319 319 319 319 319 320 321 322 323 323 323 323 323 321 319 317 315
298 298 299 299 299 301 301 301 301 301 302 306 308 308 308 309 310 311 312 311 311 310 309 309 311 310 311 313 313 311 310 308 307 308 310 313 314 313 315 315 315 316 317 317 316 316 318 319 318 318 319 318 317 318 318 318 318 319 320 321 321 320 319 320 321 321 320 320 319 319 319 319 319 318 318 319 320 320 320 320 320 320 320 318 316 315 312
298 298 299 299 300 300 301 301 301 301 303 306 308 308 308 309 310 311 312 311 310 310 308 309 311 311 311 312 311 310 310 309 309 309 309 310 311 310 314 317 316 317 317 315 314 314 314 314 313 314 315 314 314 314 315 316 318 320 321 322 321 320 319 320 321 322 320 320 320 321 320 320 321 317 315 317 318 318 317 317 318 318 318 317 317 314 310
298 298 299 299 299 300 300 300 300 301 302 304 306 307 307 308 309 310 311 311 309 309 310 309 311 310 309 309 309 309 309 309 310 310 309 309 309 309 313 315 315 315 314 312 312 312 312 312 313 314 315 314 314 314 314 315 316 318 320 322 322 320 320 321 320 321 320 320 320 321 321 322 320 314 313 315 317 316 317 317 316 316 315 315 314 310 308
298 298 298 298 298 299 300 301 301 301 302 303 304 305 304 304 307 310 311 311 310 309 309 309 308 308 308 307 307 308 309 309 310 311 311 310 310 311 313 314 313 312 310 310 310 311 313 314 314 314 314 314 314 314 314 315 315 316 318 321 322 321 320 320 320 320 320 319 320 321 323 320 315 312 312 314 314 313 313 313 314 313 313 311 310 308 307
298 297 297 297 298 299 300 301 301 301 302 302 304 305 303 303 307 309 310 311 310 309 308 307 307 307 308 308 308 308 309 309 310 311 312 311 311 311 311 312 312 310 308 309 309 311 315 316 314 315 314 314 314 314 313 314 315 316 317 319 320 320 319 319 319 319 319 319 320 322 320 314 312 312 312 313 313 313 313 312 311 311 311 310 308 307 306
297 296 297 297 297 298 300 301 302 302 302 302 304 304 303 303 306 309 309 310 308 306 307 308 307 308 309 308 309 309 309 310 310 310 311 311 310 309 309 309 309 308 307 309 310 312 315 315 314 315 315 314 315 315 314 314 314 315 316 317 318 319 318 318 318 319 318 318 319 318 315 314 314 313 312 313 314 315 315 314 310 309 309 309 307 306 304
297 296 297 297 297 299 300 301 302 302 302 303 304 304 304 303 305 307 307 309 308 306 307 308 308 309 309 308 309 310 310 311 311 310 310 310 309 308 307 307 307 307 308 309 312 313 313 313 313 314 314 314 314 314 314 314 314 314 316 317 318 319 319 318 318 318 317 318 317 316 318 319 316 313 313 313 313 313 313 314 311 308 307 307 306 305 304
296 296 297 297 297 299 300 302 303 303 303 303 304 305 305 303 303 305 306 308 308 308 307 306 306 309 310 308 309 310 309 310 311 311 311 310 309 308 308 308 309 310 309 310 312 312 311 312 312 312 313 313 312 314 315 315 315 315 315 316 317 318 318 317 317 317 317 318 319 318 319 318 315 313 313 312 312 313 313 315 314 308 306 306 306 305 304
296 297 297 297 298 299 300 302 303 304 303 304 304 305 305 304 304 305 306 308 310 308 306 305 307 310 310 309 309 309 309 309 310 311 311 310 309 309 309 309 310 311 311 312 312 312 311 312 311 311 312 312 312 314 314 315 316 316 315 315 316 316 315 315 316 317 317 318 317 316 315 314 313 313 312 311 311 312 314 317 316 309 305 306 305 304 304
296 297 297 297 298 299 301 302 303 304 305 304 305 306 306 305 304 305 307 310 310 309 307 306 308 311 310 309 309 310 309 309 309 310 310 310 309 309 309 310 310 310 311 312 311 311 311 311 312 312 312 311 312 313 313 314 315 314 314 314 314 314 314 314 315 316 315 316 316 314 312 311 313 313 311 310 311 313 314 316 313 308 306 306 305 304 304
296 297 297 297 298 299 301 302 303 305 305 305 306 308 307 305 304 304 307 310 310 308 307 306 308 309 308 309 311 310 309 309 309 309 309 309 310 308 308 309 310 310 311 311 311 311 311 311 313 313 311 311 312 313 312 313 312 311 312 312 313 313 313 313 314 314 313 314 314 313 312 311 311 311 311 311 312 313 313 312 309 307 306 306 305 304 304
296 297 297 298 298 299 301 302 304 305 305 305 306 307 306 305 304 304 306 310 310 307 306 305 306 307 307 308 310 310 309 310 310 309 309 310 310 309 309 310 310 310 310 310 310 310 311 311 312 312 312 312 312 312 311 310 310 310 310 312 312 312 312 313 312 312 312 313 313 313 313 311 310 310 311 311 312 312 310 309 308 307 306 306 305 305 304
296 297 298 298 299 300 301 302 303 304 304 304 304 306 306 305 305 304 303 307 310 308 306 304 305 306 306 306 307 308 309 311 311 310 310 311 311 311 310 310 310 310 310 310 310 310 311 312 312 312 313 312 311 312 312 311 310 308 309 311 311 311 312 313 311 310 312 313 312 311 310 309 309 310 311 311 310 310 309 309 308 307 307 306 306 305 304
296 297 298 298 300 300 301 302 302 303 304 303 303 306 308 305 304 305 303 305 309 307 305 304 303 304 304 304 304 305 306 307 308 310 311 311 311 311 312 312 312 311 311 311 310 309 310 311 311 311 312 311 311 312 312 313 312 309 308 310 311 310 310 311 310 308 309 311 309 307 307 307 307 308 309 309 309 308 309 309 308 307 307 306 305 304 303
296 297 298 298 300 301 302 303 302 303 304 302 302 306 308 306 304 303 305 307 309 307 306 306 305 305 305 304 304 303 303 304 305 307 310 312 311 311 312 312 312 311 311 312 311 311 311 311 311 311 312 311 311 312 311 312 312 310 308 308 309 308 308 309 309 306 306 307 306 305 306 306 306 307 307 308 307 307 308 308 307 307 306 305 304 303 302
296 297 298 298 300 301 302 303 303 303 303 303 302 304 306 304 302 302 305 309 309 308 308 307 306 306 305 305 304 304 304 304 305 304 306 310 311 311 311 311 312 312 312 311 311 311 311 310 310 311 311 310 310 311 311 311 310 310 309 308 307 307 308 309 308 308 308 308 305 305 305 305 305 305 305 306 306 306 307 307 306 306 306 305 304 303 302
296 297 298 298 299 301 302 303 303 303 303 303 303 304 306 305 302 302 306 309 308 308 308 306 306 306 305 304 305 304 304 305 306 306 307 309 313 313 312 309 310 312 312 310 310 310 309 309 310 310 310 309 309 310 311 310 310 309 309 309 308 308 308 308 308 308 309 307 305 304 304 304 304 304 304 304 304 305 305 305 306 306 306 305 304 303 302
296 297 298 298 299 301 303 303 304 303 303 303 303 304 306 305 301 302 307 310 309 308 308 307 306 306 305 305 305 304 305 306 307 308 309 310 311 312 310 309 309 310 310 310 310 309 308 309 310 310 309 308 309 309 309 309 309 308 309 308 308 308 308 307 307 307 307 306 304 304 304 304 304 304 304 303 304 304 304 304 304 304 304 304 303 303 303
296 297 298 298 299 301 302 303 304 304 304 304 303 303 304 303 302 303 305 307 308 308 306 306 307 306 306 306 305 305 306 307 308 308 309 309 310 310 311 311 310 310 309 309 309 308 308 309 309 309 309 308 308 308 308 308 308 308 308 307 307 307 307 306 306 306 307 306 305 305 306 305 304 303 303 303 303 303 303 304 304 303 303 303 302 303 303
295 297 298 298 299 301 303 304 304 304 304 304 303 303 303 303 303 303 302 303 308 309 306 306 307 307 307 306 305 305 306 307 308 308 308 308 309 310 311 311 310 310 309 309 308 308 308 307 307 307 307 307 308 308 308 307 307 308 307 307 306 307 307 307 307 308 308 306 305 306 307 305 303 303 303 303 303 304 303 304 304 303 304 304 303 302 301
295 296 298 298 299 301 303 303 304 304 305 304 304 305 305 304 303 303 303 304 307 309 307 305 306 306 306 305 305 305 306 307 307 308 308 308 308 309 310 310 309 309 308 307 307 307 306 306 306 306 306 307 308 307 307 307 308 307 307 306 306 306 306 307 307 308 307 306 305 306 306 304 303 303 303 303 304 304 303 303 304 304 304 304 303 302 301
294 296 297 298 299 301 303 303 303 304 304 305 306 306 306 305 304 303 303 303 305 308 307 306 305 305 305 305 305 305 305 306 307 307 308 308 308 308 308 308 308 307 307 306 306 305 305 305 305 305 305 306 307 307 307 307 307 306 306 305 305 305 305 305 306 307 307 306 305 305 304 303 303 303 303 304 304 304 303 303 303 304 303 302 302 301 301
294 295 297 298 299 301 303 303 302 303 304 307 307 306 305 305 305 304 302 302 305 307 307 305 305 305 305 305 306 305 304 306 307 307 307 307 307 307 307 307 306 306 306 305 305 304 304 304 305 306 305 304 305 307 307 307 307 306 305 305 305 305 305 305 305 306 305 305 304 304 303 302 303 303 303 304 304 304 304 304 303 302 302 302 301 301 301
295 295 297 298 299 301 303 303 302 302 303 305 306 305 304 305 304 303 302 303 305 307 306 305 305 305 305 305 305 304 304 306 307 307 306 306 306 306 306 306 306 306 305 305 304 304 304 304 305 306 306 304 305 307 307 307 307 306 305 304 304 304 304 305 305 304 304 303 303 303 302 303 303 303 303 303 304 303 303 303 302 302 301 301 301 301 301
295 295 296 298 299 301 303 304 303 302 302 302 303 304 303 303 303 302 302 303 305 307 307 305 305 304 305 305 306 305 305 307 307 305 305 305 306 307 306 306 306 305 304 305 304 303 304 304 304 305 305 305 305 307 307 306 306 305 304 304 304 304 304 304 304 304 303 304 304 304 303 303 303 303 303 303 303 303 302 302 301 301 301 301 301 301 301
296 295 296 297 299 301 303 304 303 303 303 303 305 305 303 302 303 302 302 304 306 306 305 305 305 304 304 305 306 305 305 306 307 305 304 304 306 306 305 305 305 304 304 304 304 304 304 304 304 304 304 304 304 305 306 305 304 304 303 304 304 304 304 304 304 304 304 304 304 304 304 303 303 303 302 302 302 302 301 301 301 301 300 300 301 301 301
296 295 296 298 299 301 303 304 303 304 305 305 306 305 303 302 302 302 302 304 306 305 304 303 304 304 304 304 305 304 304 305 306 305 304 304 305 306 305 304 304 303 303 304 304 304 303 304 304 304 303 303 304 304 305 304 304 303 303 303 304 304 304 304 304 304 304 304 303 303 303 303 302 301 301 301 301 302 301 301 301 300 299 300 301 301 301
296 297 297 298 299 302 304 304 304 304 306 306 304 303 303 303 303 302 302 304 306 306 304 304 304 304 304 304 303 304 304 304 305 304 304 304 304 304 304 304 303 303 303 304 304 303 303 303 304 303 303 303 304 304 304 304 303 303 304 304 304 304 304 304 304 303 303 303 302 302 302 302 301 301 301 300 301 301 301 301 301 300 300 300 301 302 302
299 299 299 299 301 303 305 305 304 303 303 303 302 302 303 303 303 304 304 304 305 306 306 305 304 304 305 304 303 303 304 304 304 304 304 303 303 303 303 303 302 303 303 303 303 303 303 303 303 303 303 304 305 304 304 304 303 304 304 304 304 304 304 303 303 303 302 302 302 301 301 301 300 300 300 300 300 301 301 301 301 301 301 301 301 302 302
301 302 303 303 303 302 304 305 304 302 301 301 302 303 304 304 304 304 304 304 304 304 305 306 305 304 304 304 304 304 304 304 304 303 303 303 302 302 302 302 302 302 303 302 302 302 302 302 303 303 303 304 304 304 303 303 303 303 304 304 303 303 303 303 303 302 302 301 301 301 301 300 300 300 300 300 300 301 301 301 302 302 302 302 302 302 302
303 304 304 304 303 302 303 304 302 301 302 303 303 304 304 303 303 303 302 302 303 303 304 305 305 304 305 305 304 303 303 304 304 303 303 302 302 302 302 302 301 301 302 302 301 302 302 302 302 303 303 303 303 304 303 303 303 303 303 303 303 303 302 303 303 303 302 301 301 301 300 300 300 300 300 300 301 301 302 302 302 302 302 302 302 302 302
303 304 303 303 303 302 302 301 300 301 303 304 303 303 303 303 303 302 302 303 303 302 303 305 305 304 306 306 304 303 303 304 304 304 303 302 302 302 302 302 301 301 302 302 301 302 302 301 302 303 303 302 303 303 303 302 302 302 302 303 303 302 302 302 302 302 302 301 301 301 301 301 301 301 301 301 301 302 302 302 302 302 302 303 302 302 302
301 302 303 302 301 300 299 300 301 302 303 303 303 303 303 302 301 301 301 303 303 302 303 304 304 304 305 305 305 304 303 303 304 304 303 302 302 302 302 301 300 301 302 302 301 302 302 301 302 303 304 303 302 302 302 302 301 302 302 302 302 302 302 302 302 301 301 302 301 301 301 301 301 302 302 302 302 302 302 302 302 302 302 302 302 302 301
298 299 300 299 299 299 299 301 302 302 301 302 302 302 301 301 301 301 302 303 303 303 303 305 305 304 304 305 305 304 303 303 303 303 302 301 301 302 301 301 301 302 302 302 302 302 301 301 301 303 304 303 302 302 302 301 301 301 301 302 302 302 302 302 302 301 301 301 302 302 301 301 301 302 301 302 302 302 301 301 302 302 302 302 301 301 301
298 298 298 298 300 301 300 301 301 301 301 301 302 301 301 301 302 302 302 302 302 303 304 304 304 303 303 304 304 304 303 302 303 303 302 301 300 301 301 301 301 302 302 302 302 302 302 301 301 303 304 304 302 302 302 302 301 301 301 302 302 301 301 302 302 301 301 301 302 302 302 302 302 302 301 301 302 302 302 302 302 301 301 301 301 300 301
299 300 299 300 300 300 300 300 300 300 300 301 301 302 302 302 302 302 302 302 303 304 304 304 304 304 304 304 303 303 302 302 302 302 301 301 301 301 301 301 301 302 302 302 302 302 302 302 302 304 304 304 302 302 302 302 301 301 301 302 302 302 301 301 302 302 302 302 302 302 302 302 302 302 302 302 302 302 302 302 302 302 301 301 301 301 301
301 301 300 300 300 299 299 299 299 300 301 301 301 302 302 303 303 303 303 304 304 305 304 304 305 304 304 303 303 302 302 302 302 302 301 301 301 301 301 301 301 301 302 302 303 302 302 302 303 304 304 303 302 302 302 301 301 301 301 301 302 302 302 302 302 302 302 302 302 302 302 302 302 302 302 302 302 301 301 301 302 302 301 300 300 301 301
301 299 299 300 300 299 298 299 299 299 300 301 301 302 302 303 303 304 303 304 305 305 304 304 305 305 303 302 302 302 302 302 302 301 301 301 301 301 300 301 301 301 301 302 302 302 303 303 303 304 304 303 303 302 302 301 301 302 301 301 302 303 303 303 302 302 302 302 302 302 301 302 301 302 302 301 301 301 301 301 301 301 301 300 301 301 301
301 298 298 299 299 298 298 299 300 300 300 301 301 302 303 303 303 303 303 303 305 305 305 305 305 304 303 302 302 302 302 302 301 300 300 301 301 300 299 300 301 301 301 302 302 302 303 303 304 304 304 303 303 303 302 302 302 301 301 301 301 302 303 303 302 302 302 301 301 301 301 301 301 301 302 302 302 302 302 302 302 301 300 301 301 300 301
301 299 298 299 299 299 299 300 300 300 300 300 300 301 301 301 302 303 302 302 304 305 305 304 304 303 302 302 303 302 302 302 301 300 300 301 300 300 299 300 301 301 301 302 302 303 303 303 304 305 304 303 303 303 302 302 302 302 301 301 301 302 302 302 302 302 302 302 302 302 301 301 302 302 302 302 302 302 302 302 302 301 300 300 301 300 301
299 299 298 298 299 299 299 300 300 300 300 300 300 300 300 301 302 303 302 302 304 305 304 304 304 303 302 302 302 302 302 302 301 300 300 300 300 300 300 300 301 301 302 302 302 303 303 304 305 305 304 304 303 303 303 303 303 302 302 302 302 302 302 302 302 302 302 302 302 302 302 302 302 302 302 302 302 302 302 302 302 301 301 301 300 300 300
300 300 299 299 299 299 299 299 299 300 301 300 300 300 300 301 302 302 302 302 304 304 303 303 303 303 302 301 301 302 302 302 301 301 300 301 301 300 301 301 301 302 302 302 303 303 303 304 305 305 305 304 304 303 303 303 303 303 303 303 303 303 302 302 302 302 303 303 302 302 302 302 302 302 302 301 301 302 302 302 302 301 301 301 300 300 300
300 300 300 300 300 300 299 300 300 300 301 300 300 301 301 301 301 302 302 303 303 303 303 303 303 302 301 301 301 301 301 301 301 301 301 301 301 301 301 301 302 302 303 303 303 303 303 304 305 305 305 304 304 304 303 304 304 304 303 303 303 303 303 303 303 303 303 303 302 302 302 302 301 301 301 301 301 301 301 301 301 301 301 301 300 300 300
300 300 301 301 301 300 300 299 300 300 300 300 301 301 301 301 302 302 302 302 303 303 303 303 303 302 302 302 302 301 301 301 301 301 301 301 301 301 302 302 303 303 303 304 303 303 303 304 305 305 305 305 304 304 304 304 304 304 303 304 304 304 303 304 304 304 303 303 303 303 302 302 302 302 301 301 301 301 301 301 301 301 301 301 300 300 300
Wind_Speed
14 13 12 12 11 11 9 9 9 9 8 6 3 1 2 2 2 3 7 11 6 4 5 6 5 6 4 1 1 3 3 4 5 5 6 6 6 6 6 7 7 7 9 12 15 12 8 10 11 9 12 9 4 9 13 10 13 12 8 7 5 1 5 7 8 6 5 6 5 2 1 3 4 3 3 7 8 7 7 5 7 8 6 6 7 5 4
14 14 13 12 12 12 10 9 10 9 8 6 3 1 0 2 3 4 8 8 4 4 5 5 6 6 3 2 1 3 3 5 7 9 8 5 5 6 6 6 6 7 8 11 14 12 7 5 8 7 9 6 4 7 11 10 12 11 6 7 7 4 4 6 9 9 6 6 7 6 5 6 5 3 2 1 4 6 4 3 6 7 6 7 7 4 5
15 14 14 14 13 12 10 9 9 10 9 6 2 1 0 2 4 4 6 6 5 3 1 3 6 5 1 2 3 3 3 7 10 12 11 9 8 7 6 7 7 7 10 11 13 13 8 5 7 7 7 6 4 6 10 10 10 6 3 5 6 2 0 1 8 11 10 9 8 6 7 7 3 3 3 2 2 5 4 5 7 6 6 6 5 3 7
16 15 15 15 13 12 11 9 9 10 9 6 3 2 2 1 3 3 5 5 3 2 2 1 2 2 2 2 2 3 6 7 9 12 13 11 10 9 8 10 9 9 13 13 12 14 11 6 7 8 8 6 4 7 10 8 7 8 8 5 5 3 4 5 2 4 5 4 3 1 4 7 6 5 5 4 2 1 3 6 7 5 7 5 1 10 14
16 16 16 15 14 13 13 11 10 10 8 5 2 2 2 1 2 4 4 4 3 3 1 1 2 2 2 1 2 6 9 8 6 7 7 4 4 7 9 10 8 10 13 12 11 12 10 7 8 9 9 7 7 9 9 7 8 11 7 3 3 4 4 7 9 9 7 7 7 5 6 9 9 8 7 4 2 0 2 3 3 5 7 4 7 15 18
17 17 16 16 14 14 13 13 12 10 6 3 3 2 1 1 2 2 1 1 3 2 2 3 3 6 7 4 4 7 11 11 6 3 2 1 2 5 6 7 10 13 14 10 8 11 10 8 8 9 10 10 11 10 8 7 9 10 6 3 2 4 5 4 9 12 10 9 10 11 12 12 12 11 9 8 5 3 4 4 3 1 4 6 12 16 16
17 17 17 16 15 14 14 13 12 10 5 2 3 2 0 1 1 2 1 0 2 2 3 6 6 8 8 5 6 8 8 6 4 2 2 2 3 5 4 5 8 13 15 11 8 9 10 10 10 9 11 11 10 9 7 6 8 9 7 5 1 3 5 6 10 13 12 10 11 12 13 14 15 14 12 11 11 11 10 9 9 9 10 13 18 18 14
18 18 17 16 15 14 14 13 12 10 6 2 2 2 1 1 1 1 1 1 3 4 2 5 5 6 7 5 6 6 2 2 3 3 3 2 2 3 5 6 5 8 13 12 7 3 5 10 11 8 9 9 6 5 6 6 8 8 6 5 1 2 6 8 8 10 10 10 10 11 14 16 17 15 12 11 12 12 12 12 12 13 15 17 19 18 12
18 18 17 16 14 14 13 12 12 10 5 2 2 2 1 2 2 2 1 1 3 2 1 3 4 4 4 4 5 4 0 5 5 3 2 2 1 1 3 8 8 7 11 12 10 8 7 11 11 7 7 6 2 3 3 4 8 8 5 4 3 4 7 7 5 6 7 7 10 12 15 17 16 14 12 10 9 8 8 7 6 8 15 18 16 12 8
18 18 17 15 13 12 11 11 11 11 7 3 2 2 2 3 2 2 2 0 1 1 2 3 3 2 1 3 5 5 1 4 7 6 3 1 1 5 3 9 9 8 14 13 9 10 14 15 13 10 10 11 7 6 7 5 4 6 5 4 4 6 8 7 5 6 6 8 10 9 9 10 9 8 8 6 7 9 9 8 8 10 13 12 8 8 10
18 17 16 14 13 12 11 11 11 11 8 4 3 3 3 3 1 1 3 2 2 1 2 2 1 2 4 3 4 3 6 6 5 6 5 3 2 2 4 11 11 8 11 8 5 9 13 14 13 11 13 15 11 10 12 11 8 4 3 3 5 8 9 7 4 5 7 10 7 3 6 6 3 3 4 3 5 9 11 12 11 10 9 8 9 12 14
19 17 16 15 15 14 13 11 10 9 6 3 3 3 3 3 2 1 3 1 2 0 2 1 2 3 5 3 3 7 11 12 10 9 9 7 8 7 6 11 12 7 4 2 3 6 9 12 15 15 16 17 15 15 16 14 10 6 2 5 8 9 8 5 4 5 7 9 7 6 5 3 2 2 2 5 9 13 16 14 10 9 11 15 17 16 15
19 18 17 18 18 16 14 12 10 8 5 3 3 4 3 2 1 0 2 1 1 2 3 2 1 1 2 3 7 9 11 12 11 12 11 10 11 11 8 9 11 9 7 2 2 3 6 10 12 13 14 14 14 16 18 16 12 9 5 5 7 8 7 5 5 6 7 7 5 4 4 4 3 4 6 8 11 13 13 12 9 8 11 15 18 16 15
19 18 18 20 20 18 15 13 10 9 6 3 3 4 3 2 2 1 1 1 1 2 4 1 3 3 3 4 6 8 10 11 12 12 11 10 12 13 10 8 9 7 6 2 2 3 6 8 8 8 10 9 9 10 11 12 12 11 9 6 5 6 7 6 5 3 4 5 4 4 5 4 2 3 5 6 5 4 6 7 6 5 8 13 17 17 16
19 19 19 21 21 20 17 14 10 8 6 3 3 4 3 3 3 1 1 2 0 1 2 3 3 5 5 5 5 5 6 7 8 9 9 10 10 10 8 5 4 4 3 1 2 2 4 6 6 7 7 6 5 4 4 5 8 10 10 7 5 4 4 5 5 3 4 6 6 5 6 4 3 6 7 4 1 1 4 8 5 4 7 11 15 17 17
20 20 21 22 23 22 19 15 10 7 5 2 2 3 3 4 3 2 0 2 1 2 4 5 5 6 3 5 5 6 5 4 5 6 8 9 8 8 7 4 2 3 3 2 0 1 2 3 4 5 4 2 2 3 4 4 3 6 7 7 8 7 4 3 5 5 6 6 5 6 4 2 4 9 9 5 3 3 5 5 4 6 9 11 14 16 16
21 21 22 24 25 24 20 16 12 8 4 1 3 2 2 4 4 3 1 2 0 3 5 6 6 5 2 3 4 4 3 2 2 3 4 5 6 6 5 4 4 3 2 1 2 2 3 4 3 4 4 3 0 3 4 3 4 5 5 6 8 7 4 3 5 6 6 5 4 4 2 2 6 11 9 6 4 3 5 5 6 10 13 12 13 15 15
22 22 23 25 26 25 23 19 15 10 5 2 4 2 1 3 5 3 2 3 0 4 6 7 6 4 4 4 4 3 2 1 2 4 4 4 4 4 4 1 2 2 1 2 2 3 3 3 2 3 5 2 2 1 3 3 4 3 3 4 6 5 3 2 4 6 5 5 4 4 3 3 8 10 8 6 4 4 5 2 7 14 15 13 13 14 14
23 23 24 25 26 26 25 21 17 12 7 4 4 3 1 2 5 5 3 3 1 4 6 6 6 6 4 4 2 2 1 1 1 2 3 3 3 3 2 1 0 1 1 2 3 2 2 2 2 2 4 3 1 2 3 3 2 2 2 2 4 4 3 2 3 4 3 3 5 5 4 4 7 8 6 5 4 3 2 5 11 16 16 14 14 14 14
23 23 24 25 26 27 26 23 18 13 8 5 4 4 2 1 4 5 3 3 2 5 6 6 7 8 7 6 5 4 2 1 2 2 2 3 2 3 2 3 1 0 1 2 2 1 1 3 3 1 2 4 2 2 4 4 3 2 2 1 2 2 1 4 4 2 2 4 5 3 3 6 9 9 6 3 1 3 7 10 12 15 15 15 14 13 13
24 23 24 25 26 27 27 24 20 14 8 6 5 5 2 0 3 4 3 4 2 4 5 6 8 10 10 9 9 8 7 6 6 4 3 4 1 3 1 3 2 1 1 1 2 2 1 2 3 1 2 3 1 2 5 5 4 3 3 2 2 3 2 3 3 1 2 4 3 1 3 7 9 6 3 3 3 5 9 11 12 12 13 13 13 12 11
24 23 23 24 25 26 26 24 21 16 10 8 7 4 3 2 1 2 1 2 2 3 4 2 3 6 7 9 10 9 8 8 7 6 3 2 1 1 1 3 3 2 2 1 1 2 1 2 3 2 3 3 2 3 4 3 5 5 2 1 2 3 3 3 4 3 3 4 4 4 5 7 6 3 4 7 8 7 9 12 12 11 11 11 12 12 11
23 22 22 23 23 24 24 23 21 16 10 8 8 5 3 2 2 2 2 1 0 5 5 2 1 2 4 7 10 9 8 8 8 6 6 2 1 1 1 2 3 2 1 2 2 1 3 3 2 2 3 3 2 4 3 1 3 6 3 2 4 4 3 2 4 7 7 8 7 6 7 8 8 7 7 9 9 8 9 11 12 11 11 12 12 13 12
23 22 21 21 22 22 22 22 19 15 11 9 9 7 5 4 3 1 1 3 1 4 6 7 5 5 7 9 10 9 9 11 10 6 5 4 1 0 2 3 2 1 2 2 3 1 3 3 1 2 4 2 0 3 3 3 4 5 4 4 4 3 1 2 5 7 5 4 6 7 8 10 10 9 9 9 9 9 9 10 11 11 11 13 15 15 14
22 21 20 20 20 20 20 19 17 15 12 11 12 10 7 7 6 3 1 2 1 2 4 6 7 8 8 8 9 10 11 12 10 5 1 3 4 2 4 4 3 3 4 2 1 2 4 3 1 4 5 1 2 1 3 3 4 5 3 3 4 3 3 5 6 5 3 6 8 8 9 10 9 8 8 8 8 9 9 10 12 12 13 16 18 17 15
20 20 19 19 19 18 18 17 16 13 10 11 13 13 11 10 11 6 2 2 2 3 3 5 7 10 11 11 11 11 12 11 10 11 10 8 7 8 10 8 6 6 5 3 2 3 4 4 3 4 5 2 1 2 4 4 4 5 3 2 3 4 5 6 7 7 7 8 9 10 10 9 7 8 9 8 9 11 12 13 14 15 16 17 17 17 17
19 18 18 17 17 18 17 15 14 13 9 6 9 12 14 16 15 11 6 3 1 2 4 5 4 7 14 16 14 12 12 11 11 14 15 14 12 12 10 8 6 6 5 4 4 4 4 6 5 5 5 4 3 4 5 5 5 5 5 4 4 5 7 7 8 8 7 7 10 10 8 7 7 8 10 11 11 13 14 15 16 17 17 17 17 18 20
18 16 16 16 15 16 16 14 13 14 11 7 5 6 11 17 18 14 10 6 2 1 5 5 3 3 7 12 14 13 13 12 12 14 15 14 13 11 9 7 5 5 4 5 5 4 6 6 5 5 5 4 4 5 5 6 6 5 6 5 3 4 6 6 5 5 7 11 12 9 6 8 10 11 12 12 13 14 16 17 17 18 19 21 20 19 18
17 15 15 14 14 15 15 14 13 13 14 11 6 3 4 11 16 16 10 6 4 2 4 6 4 3 3 6 10 13 14 13 14 15 15 14 14 13 10 8 7 6 5 6 6 6 7 5 4 4 3 1 1 5 6 5 6 6 6 5 3 3 5 3 4 4 10 14 12 8 9 13 13 13 13 14 15 16 16 17 18 20 22 24 23 20 18
17 14 13 13 12 13 13 13 13 13 13 10 4 3 2 4 11 15 11 5 3 2 2 5 5 4 2 3 6 10 12 12 15 17 16 14 12 11 10 9 7 6 6 6 6 6 6 5 4 4 3 4 1 5 6 5 6 6 5 5 4 5 6 2 2 5 12 13 10 11 14 15 14 14 14 15 18 19 17 17 20 23 23 24 22 20 19
16 14 12 11 10 11 11 11 11 12 12 8 3 3 0 2 6 12 11 6 4 2 3 5 4 3 3 2 4 7 8 7 10 13 14 12 11 11 12 10 7 7 7 7 6 6 5 4 3 4 2 3 2 4 6 6 7 7 6 6 6 6 6 5 5 10 14 13 14 16 17 15 14 14 14 15 19 21 19 20 23 23 22 22 21 19 18
16 13 11 9 8 9 9 8 8 10 12 9 5 4 3 2 6 10 8 6 5 2 3 5 4 3 3 3 2 4 5 2 4 7 8 8 8 9 10 8 6 6 6 4 5 5 4 3 4 4 3 2 2 3 6 6 7 8 7 7 7 7 8 10 12 14 14 15 17 18 16 14 14 14 15 17 21 22 21 22 23 22 21 20 19 17 17
15 12 10 8 7 7 7 7 6 6 8 7 6 6 6 5 5 6 5 6 4 2 1 2 3 3 2 2 2 3 4 1 3 5 5 5 4 3 6 6 5 5 6 4 4 3 2 2 5 6 4 1 1 4 7 7 8 10 9 8 9 10 12 13 14 15 15 14 14 14 15 17 17 18 20 21 21 22 22 22 21 20 19 18 16 15 15
14 11 8 7 6 6 6 6 5 5 5 3 2 4 7 6 5 4 3 3 2 1 2 1 2 4 3 2 2 3 5 2 2 4 5 4 3 2 4 5 4 4 5 4 3 3 2 2 4 4 4 2 3 4 6 7 9 10 9 10 12 12 13 14 14 14 15 14 12 13 17 21 21 21 21 20 19 20 21 20 19 18 16 14 14 14 14
11 8 6 6 6 5 5 5 5 4 3 1 1 4 5 4 6 8 7 3 1 2 2 1 1 4 4 3 3 3 4 2 2 3 3 3 3 3 3 4 4 4 3 2 2 4 4 2 1 2 3 2 3 3 5 8 10 10 10 12 13 13 15 16 15 14 14 14 14 16 19 21 20 18 17 17 17 19 20 19 18 18 14 12 13 14 13
8 5 5 5 4 4 4 3 3 2 2 2 3 4 2 2 4 7 8 6 3 1 2 2 2 3 3 3 4 2 1 1 3 2 1 2 2 2 2 3 5 3 1 1 3 5 3 2 1 2 3 2 3 5 7 9 11 11 11 13 13 12 13 15 16 16 16 17 18 18 18 19 18 16 15 15 16 18 18 17 16 16 13 11 12 12 12
5 4 3 3 3 3 3 1 2 3 4 5 6 4 1 1 0 2 3 4 5 4 1 2 3 1 0 2 3 1 1 1 2 1 1 2 2 2 2 3 4 1 0 3 5 4 2 1 1 3 4 3 4 8 9 9 10 11 11 12 11 11 12 14 16 18 20 20 19 18 17 17 16 14 14 15 15 16 16 14 14 14 12 12 12 11 11
2 1 0 2 4 3 2 1 2 4 6 6 5 2 0 0 1 2 2 1 2 2 1 1 2 2 1 1 2 1 1 1 2 2 2 1 1 1 1 2 1 0 1 4 3 1 1 2 2 4 5 4 6 9 9 9 9 9 10 10 11 11 12 13 16 18 19 18 18 17 16 16 16 15 14 15 15 15 14 14 14 13 13 12 11 10 9
1 0 1 3 3 1 1 2 5 6 4 3 3 1 1 1 1 2 1 1 1 1 1 1 3 2 2 3 3 2 1 1 3 3 2 1 0 1 1 1 1 1 2 3 2 1 1 2 3 4 5 5 6 8 8 9 9 9 9 11 13 14 14 14 16 17 16 15 16 17 17 17 17 16 14 13 13 13 14 15 14 13 12 11 9 8 8
6 3 1 1 0 3 5 6 5 4 2 1 1 0 0 0 0 1 1 2 2 2 0 0 2 1 1 1 3 3 1 2 1 2 4 2 1 0 1 2 1 1 2 3 2 1 1 2 2 3 5 6 7 8 8 9 10 10 10 13 16 18 18 17 18 18 17 17 19 20 19 19 18 16 14 13 12 11 12 13 12 11 10 8 7 6 7
8 5 3 3 5 8 7 5 3 1 1 1 1 0 0 1 1 0 1 3 3 2 1 1 3 4 1 1 2 3 2 1 2 1 3 3 1 1 1 3 1 1 2 3 1 1 1 2 2 3 5 7 9 9 10 11 11 10 12 16 18 19 20 20 19 20 20 19 19 19 20 20 19 16 15 15 14 13 12 12 12 11 10 9 8 7 8
9 7 6 7 9 8 5 2 0 0 0 1 1 1 1 1 1 2 2 2 1 2 2 1 2 3 3 1 1 2 2 0 2 1 2 2 0 1 1 2 1 1 2 3 1 2 2 2 3 4 6 9 12 11 11 11 12 12 14 17 19 19 20 20 19 20 21 20 17 17 18 19 18 16 16 15 15 14 13 13 12 12 11 10 10 9 9
8 5 4 5 5 3 1 1 0 1 0 1 1 1 2 2 2 2 2 1 1 1 2 1 1 2 2 1 1 2 2 0 1 1 1 2 1 1 2 2 1 1 3 2 2 2 3 3 3 5 8 10 12 12 12 12 13 13 15 17 19 20 20 20 19 19 21 20 18 16 16 16 15 15 14 14 13 13 13 12 12 12 12 11 11 10 9
4 2 3 3 1 0 1 1 1 0 2 2 3 3 4 4 3 3 2 3 3 3 3 3 4 5 4 1 1 2 2 1 1 0 2 2 1 1 2 2 2 2 2 2 2 2 2 1 2 5 9 11 11 12 13 13 13 13 14 17 19 21 21 20 19 18 18 17 17 16 15 15 14 13 12 12 12 12 13 12 11 11 12 13 12 10 9
3 2 2 2 1 1 1 1 1 2 3 3 3 4 4 4 5 4 3 2 2 3 5 5 5 5 4 2 1 1 2 2 2 1 1 2 2 1 1 2 3 2 2 3 2 2 2 2 3 7 11 13 13 14 14 14 14 15 15 16 18 19 19 20 19 18 16 16 16 15 15 14 13 13 12 12 12 12 13 13 12 12 13 13 12 10 10
3 1 1 1 1 1 1 2 2 2 3 3 3 4 4 3 3 2 2 1 1 3 5 5 5 5 4 2 1 1 1 2 2 1 0 2 2 2 1 1 2 2 2 2 3 3 3 3 5 8 12 15 15 15 14 14 14 15 16 15 15 17 18 19 19 18 18 17 16 15 15 14 14 13 13 12 11 11 11 12 13 14 15 14 12 11 11
2 1 1 2 1 1 2 2 2 1 1 1 3 3 2 1 1 1 1 0 1 2 4 4 3 3 3 2 1 2 2 2 2 1 1 1 2 3 0 2 3 2 2 3 4 4 2 3 6 9 12 15 16 16 15 15 15 16 17 15 15 16 18 19 19 19 19 18 17 16 15 15 14 13 12 12 12 11 10 10 13 15 15 14 13 11 11
1 1 2 2 2 3 3 3 2 1 1 1 1 1 1 1 1 2 2 1 1 3 5 5 4 3 3 2 2 2 3 3 2 2 0 1 2 3 2 2 3 3 3 3 3 2 2 3 6 9 13 15 16 16 15 15 16 18 18 17 17 19 20 20 19 19 19 18 17 16 15 14 13 13 12 13 13 12 10 10 12 14 15 14 12 11 11
2 2 2 1 2 2 2 1 2 3 3 2 1 1 1 3 3 2 3 2 2 3 3 3 4 4 4 2 2 3 3 3 2 2 2 2 3 3 2 3 3 3 4 3 3 1 1 3 6 10 14 15 15 15 15 15 16 17 18 19 20 21 21 20 20 19 17 16 16 15 14 13 12 12 13 14 14 12 11 11 13 14 15 14 13 12 11
2 2 2 2 3 2 2 2 4 5 4 3 3 3 3 3 3 2 3 2 3 3 2 2 2 3 3 2 3 4 3 2 2 3 4 4 4 3 3 4 4 3 2 2 2 1 2 4 6 10 13 15 15 16 15 15 15 17 19 21 21 21 21 21 21 19 17 16 16 15 14 13 13 13 14 15 14 12 12 12 13 15 16 15 13 12 11
2 2 3 4 3 3 3 3 4 4 4 4 4 3 2 3 2 2 2 3 3 5 5 5 4 3 3 3 4 3 2 2 3 3 4 4 3 3 4 5 4 3 2 2 2 1 2 4 5 8 12 14 15 15 16 16 17 18 20 21 20 20 20 20 20 19 17 16 16 15 14 14 15 15 15 15 13 13 12 12 13 15 15 15 13 12 11
3 3 3 3 3 3 3 3 3 2 2 2 2 2 1 1 0 1 2 4 5 6 5 5 4 4 4 4 3 2 2 2 2 3 4 3 3 4 5 5 3 2 2 2 2 2 2 3 5 8 11 13 15 16 18 19 19 20 21 20 19 18 18 18 17 17 16 15 15 15 15 15 15 15 14 14 13 13 13 13 14 14 15 14 13 12 11
Wind_Direction
10 4 2 1 358 0 359 356 359 357 349 350 356 318 252 195 96 70 142 157 175 239 209 185 202 217 217 259 352 48 5 302 300 299 277 264 255 251 268 266 249 243 222 190 180 180 172 179 186 180 176 173 134 156 168 179 183 184 194 180 151 180 200 174 162 151 122 106 106 111 121 184 195 180 181 197 199 206 217 204 180 188 200 200 208 200 134
4 1 3 360 357 2 2 1 5 2 355 346 331 295 223 130 98 105 153 173 268 271 194 184 200 204 212 270 309 28 339 281 271 273 269 264 270 276 278 260 243 235 215 190 179 169 150 163 175 176 175 149 98 155 165 177 192 189 187 176 170 191 193 174 169 160 149 154 158 156 168 190 192 141 82 296 196 190 201 181 184 199 199 199 212 191 128
2 3 3 359 358 1 1 2 359 351 348 345 319 295 308 138 112 112 166 203 267 271 235 229 202 181 87 348 338 0 305 268 261 264 269 269 270 276 278 276 277 244 204 182 177 174 159 145 156 168 164 130 113 160 166 185 194 168 134 158 162 171 39 188 191 181 174 174 174 173 167 162 146 105 92 50 153 187 190 178 198 207 181 195 227 147 120
2 4 2 360 -0 2 2 3 356 348 349 349 324 287 272 188 126 136 175 199 239 258 289 272 181 135 66 19 329 273 259 267 269 265 262 258 260 266 268 276 277 234 198 176 172 178 171 157 162 167 154 127 118 150 160 177 161 113 94 112 132 118 53 33 61 164 158 136 111 94 144 138 125 109 104 83 59 296 239 211 213 193 168 187 134 123 136
4 3 3 4 4 5 4 4 359 349 349 351 312 255 262 253 147 153 172 182 196 212 198 116 90 115 139 139 240 237 244 258 272 273 264 259 269 261 251 254 245 206 183 170 166 172 171 171 170 159 145 126 115 134 150 148 128 120 114 119 138 123 82 53 59 73 77 77 82 88 104 111 109 102 97 90 84 269 239 213 181 162 179 183 114 129 142
4 3 4 4 5 6 2 359 354 345 344 349 300 260 237 220 150 122 25 163 162 164 153 148 164 183 183 203 239 246 257 257 254 276 294 323 273 238 228 232 215 186 170 158 156 165 168 172 168 148 137 135 128 130 137 134 143 147 129 113 141 111 91 88 90 88 83 79 85 92 94 92 86 80 76 71 70 96 100 64 44 151 188 148 134 139 141
4 4 3 3 4 6 1 356 350 339 330 309 294 295 179 216 162 113 8 36 99 80 143 172 190 197 199 223 250 262 275 264 228 231 246 223 227 239 240 221 195 177 169 159 149 161 166 162 161 149 139 143 143 139 132 131 162 162 122 99 110 87 98 118 108 96 87 84 88 93 96 91 78 67 65 68 71 77 83 77 71 80 92 115 130 131 126
4 3 2 2 4 6 4 -0 356 344 325 278 290 336 11 317 14 98 206 164 90 60 140 193 207 211 216 238 254 259 283 108 159 226 257 215 173 234 226 190 158 157 160 148 120 119 156 149 146 143 139 143 145 139 135 141 158 155 123 114 128 95 132 141 114 93 88 89 94 96 94 90 80 68 59 67 73 72 77 81 78 84 98 114 122 118 111
3 2 2 3 5 6 5 5 9 7 353 299 304 0 345 296 298 305 294 109 86 50 211 225 243 229 222 244 261 263 114 116 130 108 352 301 307 281 176 131 112 106 110 95 67 57 83 104 102 89 100 107 76 80 102 143 156 146 118 120 136 119 142 169 155 102 98 112 115 109 103 95 83 64 47 52 69 72 73 73 67 100 122 125 124 123 126
1 1 3 7 8 8 6 4 8 16 23 3 319 349 343 285 249 268 299 47 101 251 216 224 260 281 258 255 271 293 320 155 151 123 95 283 270 296 341 87 93 87 84 74 59 73 84 87 84 78 80 71 52 66 72 62 110 130 117 113 130 130 141 173 173 113 118 147 138 125 132 127 93 48 20 28 73 86 83 82 87 112 129 134 137 139 137
1 1 5 9 9 4 1 356 354 2 20 21 322 329 346 316 275 280 274 205 158 246 250 221 259 336 337 292 274 339 42 76 105 121 126 112 77 335 32 76 79 72 77 76 68 84 93 97 95 88 82 73 59 61 67 55 50 73 112 117 128 140 145 158 153 122 142 159 152 162 185 167 105 16 340 8 86 97 94 93 94 95 93 91 105 124 132
358 2 9 11 5 358 352 349 348 350 1 0 311 310 331 316 298 292 274 221 132 285 305 324 292 300 319 347 47 50 55 59 59 78 99 93 78 76 81 86 89 94 102 72 29 62 90 105 103 96 91 87 75 64 62 56 43 34 75 133 136 138 135 127 117 120 140 157 173 193 186 153 65 50 69 82 99 102 92 82 79 85 93 102 112 123 129
358 5 12 11 7 3 354 348 345 339 336 332 307 301 304 292 275 269 282 292 32 342 321 9 55 289 310 44 67 69 69 69 66 66 70 77 80 75 70 87 105 136 172 180 17 55 103 114 112 106 107 105 88 68 60 55 47 42 58 110 136 138 125 108 104 115 136 158 183 182 138 103 94 111 109 112 120 117 99 74 58 79 111 120 121 122 122
359 8 11 11 11 9 2 354 347 337 327 310 280 280 272 250 246 235 279 280 27 321 302 13 76 42 31 53 71 84 81 72 69 65 58 65 74 68 63 80 105 144 179 197 237 188 146 136 128 125 135 134 105 78 65 56 47 44 54 74 112 133 128 118 108 119 146 131 99 102 127 134 139 151 151 142 131 120 109 91 69 82 117 127 126 124 122
3 9 10 11 13 13 10 2 352 336 318 292 252 255 245 225 222 206 317 295 164 98 4 14 358 344 16 39 41 68 86 76 76 82 77 73 73 73 74 85 115 161 191 237 238 183 145 143 146 144 151 151 122 102 97 77 47 37 45 58 67 84 121 133 123 134 151 125 108 131 160 179 187 176 171 163 184 287 122 114 102 110 133 137 134 130 128
7 10 10 12 14 15 15 10 1 344 316 279 215 227 228 207 195 160 308 289 283 77 27 359 317 303 354 46 39 45 63 68 83 103 97 83 78 82 89 98 141 191 222 247 100 99 106 125 136 132 121 113 132 122 117 125 94 54 55 69 73 73 84 121 127 140 162 166 165 163 158 157 160 160 159 157 169 184 160 139 134 146 148 146 139 133 133
8 8 9 12 14 16 17 16 10 354 329 248 176 193 205 188 183 176 237 268 341 60 25 350 310 288 338 47 46 37 33 36 64 88 87 79 77 82 91 116 149 181 254 300 73 89 98 97 110 120 94 34 341 142 124 115 109 94 83 80 78 77 79 113 136 145 163 178 169 136 92 74 143 150 153 148 145 190 208 197 166 159 157 151 143 139 140
7 8 10 12 15 17 19 20 13 0 2 104 140 146 169 182 182 191 255 271 299 66 36 1 343 351 14 14 14 16 5 5 53 75 86 84 67 51 38 53 131 134 311 337 67 84 90 88 87 113 104 55 319 159 125 101 90 83 71 78 83 80 65 84 143 146 150 161 144 110 79 116 142 143 142 142 158 207 223 173 135 149 155 151 145 143 143
5 7 9 12 15 19 21 21 17 15 31 79 117 121 125 180 184 199 254 290 43 71 44 14 15 29 14 332 334 27 356 309 3 88 124 111 52 15 355 318 52 55 27 51 71 64 83 102 66 68 119 130 108 70 87 84 67 49 41 86 103 97 85 105 137 136 140 150 137 119 109 137 149 142 138 157 186 194 131 99 123 142 148 147 145 144 145
4 6 8 11 16 20 23 24 24 28 40 61 94 107 97 161 186 204 266 324 60 85 57 26 30 38 27 12 14 14 356 355 20 39 89 90 32 301 226 170 158 122 113 118 99 52 100 123 106 42 121 114 96 95 105 91 64 40 6 13 59 39 114 135 115 92 144 152 146 138 129 149 161 157 151 176 233 103 112 119 129 139 143 143 144 144 146
4 5 7 10 15 21 24 25 26 33 44 60 85 97 77 41 205 210 256 301 335 74 65 41 42 45 43 37 21 4 1 9 7 5 39 74 45 291 246 122 96 55 86 113 100 77 59 102 99 79 92 95 117 166 138 125 110 69 1 354 51 0 324 138 110 356 223 159 137 98 98 132 155 161 130 102 97 113 127 131 133 139 144 143 143 142 139
4 5 6 9 14 19 23 25 26 29 37 53 69 73 63 58 108 146 151 284 317 62 75 68 57 52 53 49 31 15 7 359 347 336 340 36 74 317 4 77 63 38 21 352 119 126 142 137 122 126 121 114 128 139 135 147 141 120 52 343 50 26 11 58 73 52 45 71 87 101 105 111 122 112 91 104 112 121 131 133 134 141 144 143 142 136 128
3 3 4 8 13 17 21 23 26 28 32 46 55 53 60 78 76 94 107 264 126 89 76 62 108 75 45 31 18 11 6 354 339 317 302 308 88 87 43 66 64 60 28 336 327 131 133 129 126 127 118 105 120 138 128 91 124 126 111 51 64 71 55 47 90 108 94 71 80 104 109 105 107 106 107 112 116 122 130 132 135 140 141 143 143 134 128
0 0 1 6 11 15 19 22 26 31 35 43 53 54 52 40 28 51 230 267 226 103 67 46 34 13 357 352 352 359 4 355 342 313 278 272 286 39 88 69 34 106 103 29 330 33 104 103 98 112 105 81 205 156 125 94 117 132 123 104 100 105 86 77 120 146 145 91 91 104 106 111 115 112 109 110 114 124 130 131 134 135 135 139 138 131 130
357 357 358 3 9 13 16 19 23 33 41 47 52 54 45 25 22 20 298 313 356 100 76 62 41 13 360 359 2 5 1 355 357 9 7 271 300 356 97 88 39 61 94 96 210 139 101 99 128 123 113 74 306 121 81 82 147 167 164 134 127 144 157 133 123 131 113 99 112 112 101 106 115 116 117 119 121 126 127 126 130 131 129 132 132 129 132
353 354 354 358 4 9 13 15 18 27 40 50 54 59 57 43 37 32 339 331 56 73 79 79 52 31 35 39 27 10 3 9 33 56 65 68 66 84 106 110 88 86 91 82 77 87 90 97 99 103 109 90 340 88 78 78 129 160 155 113 108 136 153 141 119 110 99 105 126 125 107 102 111 113 118 123 125 128 129 127 129 129 128 130 131 132 135
349 349 350 353 359 4 8 11 16 20 23 33 45 53 54 47 41 35 13 336 275 115 100 100 79 52 50 44 31 20 18 30 55 66 65 68 75 85 99 105 98 101 99 83 79 80 87 89 75 73 97 100 83 88 95 99 117 130 126 121 130 145 146 134 127 134 138 145 155 150 131 122 128 124 122 126 128 130 130 130 132 132 132 134 136 135 135
346 345 346 347 353 0 2 8 16 17 12 5 5 30 43 42 38 33 28 17 350 98 105 96 83 81 59 36 27 32 36 43 63 72 70 70 71 73 77 81 86 93 84 81 90 86 81 86 85 86 102 106 93 96 112 121 118 114 122 130 131 148 153 144 133 144 149 151 158 161 136 125 131 130 128 131 132 132 131 132 134 133 134 137 137 135 135
344 341 341 342 348 355 358 5 14 11 3 1 347 311 30 41 33 26 32 53 52 68 115 103 74 69 55 19 27 43 48 55 69 75 74 72 69 67 68 68 69 74 75 78 86 86 80 78 82 87 70 358 120 129 133 133 118 107 119 124 110 135 147 114 53 99 134 142 152 152 130 126 131 132 131 132 133 131 128 129 132 132 135 138 137 135 135
341 337 335 335 343 351 356 5 12 5 356 352 329 262 205 73 35 19 21 49 49 16 113 105 84 77 61 17 33 47 51 60 70 71 69 68 65 64 68 69 67 70 78 82 80 85 94 85 73 84 52 339 325 141 138 130 117 108 112 118 120 138 143 100 35 127 136 137 138 131 124 126 129 130 130 131 132 130 128 129 132 133 135 136 135 133 134
338 334 328 326 335 346 353 6 16 13 6 356 310 277 170 100 19 6 15 54 81 76 98 98 104 121 110 59 27 32 39 54 67 68 68 67 65 65 64 63 64 63 70 83 79 71 84 87 81 109 101 343 332 136 130 123 120 117 116 115 116 125 133 128 127 131 130 130 128 122 121 126 131 131 132 135 134 132 131 131 133 133 134 134 133 134 136
334 329 321 316 323 336 349 2 11 18 25 33 48 53 42 356 329 342 9 60 77 81 112 108 117 132 115 101 56 15 6 36 79 73 66 59 61 67 62 59 67 57 46 70 85 66 62 74 77 93 94 334 311 126 116 109 114 118 120 120 117 119 126 126 125 126 129 133 131 125 126 135 138 134 136 137 135 133 132 132 132 132 133 133 133 134 136
331 323 311 302 307 322 342 354 350 356 15 32 55 51 25 357 339 348 23 67 64 13 5 102 122 124 117 135 108 16 341 312 111 84 60 35 26 62 68 63 72 54 24 29 76 76 60 90 90 89 84 19 35 98 93 95 108 115 119 121 119 121 125 126 127 130 135 139 138 134 136 139 137 134 135 135 133 131 131 132 133 134 135 136 136 136 138
327 317 300 285 287 304 331 346 340 331 335 347 39 24 4 4 22 31 48 80 90 81 39 20 133 127 124 180 147 34 353 340 104 82 64 34 352 20 81 73 67 55 31 27 76 97 86 79 90 97 93 66 60 79 93 107 115 116 119 121 123 126 128 129 131 133 136 138 136 130 131 133 134 135 136 134 133 133 134 137 140 140 140 140 142 143 145
322 310 292 274 271 286 317 336 330 312 296 296 9 353 349 28 64 63 63 66 198 172 120 38 171 148 149 165 142 56 357 359 67 59 66 69 24 19 67 76 65 55 27 357 65 88 77 34 26 99 102 74 59 80 114 128 127 124 126 129 132 136 136 134 135 135 136 137 134 131 132 134 135 136 137 137 137 139 141 144 147 147 147 147 147 150 155
323 308 284 265 264 278 293 318 335 321 282 296 329 330 330 86 74 59 60 56 33 53 135 175 185 168 163 141 115 72 334 106 97 64 72 106 70 22 34 73 73 62 0 4 69 75 62 336 317 92 91 61 68 95 123 136 135 133 135 137 139 141 139 137 138 136 134 133 133 134 136 137 136 138 140 140 143 146 147 149 152 152 151 150 152 158 163
324 311 282 234 235 256 254 263 358 335 313 315 321 324 342 142 125 67 70 55 32 25 354 201 162 121 53 101 107 114 254 155 127 108 81 90 76 31 27 66 84 95 106 71 66 57 33 338 11 76 71 55 81 107 124 137 137 137 139 139 137 135 132 133 136 134 132 132 135 138 141 141 140 143 144 144 148 151 151 153 157 157 155 156 159 165 169
324 324 259 199 216 226 202 155 313 306 310 316 312 303 32 320 235 146 110 10 11 22 318 231 132 119 187 132 105 49 318 158 154 134 88 83 103 91 54 56 73 144 102 82 67 12 0 53 60 75 79 81 104 119 128 135 134 136 139 137 134 133 133 136 141 141 139 141 145 148 149 147 146 148 149 149 152 155 156 158 160 159 159 161 162 167 175
20 23 211 206 209 216 346 324 308 304 311 319 304 276 85 319 237 163 113 311 220 149 254 208 132 137 184 149 117 60 342 215 177 150 120 87 24 96 113 96 83 187 142 112 108 243 173 89 86 99 110 121 129 130 134 137 136 137 138 136 136 137 138 142 147 149 147 148 149 150 151 149 149 151 152 153 156 158 160 161 162 161 162 162 163 171 184
30 13 301 225 299 343 331 317 311 303 278 248 256 260 110 178 245 148 160 209 180 135 17 138 121 95 313 201 140 123 14 311 269 132 116 97 28 351 130 102 91 193 153 112 97 257 196 117 124 136 143 149 149 145 146 146 142 141 141 141 141 144 145 147 150 150 147 144 145 147 149 149 151 153 156 158 161 162 161 163 166 168 168 165 166 174 177
9 351 331 312 319 325 326 325 332 325 263 215 184 197 190 126 73 15 238 219 179 127 87 201 163 150 177 248 164 133 111 346 326 42 101 92 39 275 120 102 119 222 127 104 121 223 165 131 153 159 151 152 154 154 155 152 147 145 147 147 147 148 148 149 149 149 149 148 148 150 153 154 156 159 160 162 164 166 167 170 173 176 174 170 168 170 167
326 310 302 300 303 311 318 319 9 51 259 214 184 208 232 173 180 210 219 225 176 132 146 201 180 141 127 104 62 92 97 30 278 248 134 108 65 305 105 116 185 220 102 102 167 210 171 160 173 157 145 150 156 159 161 157 153 151 152 153 153 153 153 153 152 151 153 155 154 154 157 160 162 163 164 166 167 168 170 173 174 176 175 171 166 166 163
323 308 294 284 284 294 290 246 154 64 222 193 165 182 207 203 210 214 194 169 180 169 149 137 118 117 120 115 67 81 90 147 267 269 101 109 139 185 142 144 175 91 99 131 203 199 176 183 180 153 148 153 159 163 164 160 157 157 157 157 159 159 159 159 157 155 158 162 163 162 164 167 168 168 170 175 176 175 177 179 179 178 177 173 169 167 165
316 277 263 249 236 305 269 216 152 166 228 206 193 201 199 187 193 207 184 161 172 174 162 167 177 167 153 154 131 113 126 180 220 114 101 127 164 177 154 138 105 94 137 189 208 192 184 210 164 146 149 155 162 167 166 162 162 162 162 164 167 167 166 166 165 164 165 167 168 170 173 176 177 178 183 189 192 190 188 186 183 180 178 176 174 170 167
266 232 214 193 176 319 273 191 170 225 229 209 202 211 204 191 195 197 170 137 157 162 157 173 187 169 140 130 180 163 156 176 170 129 135 163 162 115 82 110 125 151 191 195 188 193 206 199 167 156 157 161 167 170 168 167 168 168 167 169 173 175 174 173 173 173 175 176 177 179 182 184 185 187 190 195 198 197 192 186 182 181 181 181 179 176 175
267 254 214 206 241 273 229 189 186 211 216 204 206 216 218 214 208 178 122 111 183 167 157 170 183 166 147 146 162 144 159 170 144 104 210 198 154 101 59 119 163 188 208 202 209 223 212 170 162 167 167 167 168 169 169 170 171 171 171 173 177 180 181 180 178 178 181 184 185 186 188 188 189 189 189 189 191 193 191 186 184 184 184 184 185 182 180
268 276 242 227 206 194 211 215 208 208 219 214 216 226 250 312 347 78 100 147 213 152 142 154 163 139 134 157 172 152 160 166 134 101 256 214 132 107 136 226 202 195 202 207 217 225 206 151 156 167 168 167 168 171 172 173 175 176 176 176 178 182 186 187 186 185 185 186 187 189 190 191 191 190 188 187 187 188 187 185 185 186 186 188 190 187 182
279 251 234 229 199 190 199 206 209 213 213 219 237 290 348 304 242 180 134 127 210 166 157 163 167 148 139 171 197 163 149 149 140 127 150 167 129 136 187 216 208 209 222 226 222 208 164 145 155 164 167 169 171 172 173 175 177 179 180 179 181 186 189 190 191 191 190 189 191 193 193 193 194 194 193 192 189 185 183 182 184 186 187 190 191 188 185
281 267 255 247 241 223 196 194 226 215 188 168 188 218 215 229 227 165 114 129 193 181 159 172 187 173 157 164 188 176 170 176 170 156 166 191 185 180 192 202 200 205 215 221 224 206 123 129 149 162 167 171 173 174 176 177 178 180 182 183 184 187 190 192 195 196 194 194 197 198 197 197 198 198 197 195 190 185 181 180 181 183 186 189 191 191 192
239 254 245 227 226 210 171 185 223 217 194 184 199 204 209 224 222 155 127 161 182 162 149 182 195 164 143 160 186 184 182 178 163 165 188 202 198 188 197 210 213 211 194 183 195 188 135 134 153 165 170 173 176 177 177 177 178 182 185 185 185 187 191 194 197 197 197 199 202 201 199 199 200 197 195 193 190 182 176 176 180 185 187 188 192 197 199
213 239 245 241 239 214 176 190 223 222 205 203 202 191 204 233 226 163 144 166 174 174 181 187 174 147 154 180 187 174 158 158 174 196 210 207 190 193 213 221 224 223 198 163 151 152 148 151 163 171 173 175 177 178 177 177 179 183 185 185 186 189 192 194 196 196 196 198 200 199 199 202 202 197 192 191 188 181 176 177 181 186 188 191 197 205 205
216 227 229 229 235 233 222 229 243 234 212 209 194 163 189 239 222 110 152 184 191 191 189 181 170 172 182 182 164 141 144 163 188 206 211 202 189 210 231 239 240 238 229 202 169 159 157 161 172 178 177 176 177 177 177 177 180 184 187 187 187 188 190 191 192 191 189 189 192 195 198 199 193 186 183 186 188 188 188 186 184 186 191 196 202 208 208